Radiation Dose at Monitoring Post of Fukushima Daini Nuclear Power Station
Date,Time,MP-1(microSv/h),MP-2(microSv/h),MP-3(microSv/h),MP-4(microSv/h),MP-5(microSv/h),MP-6(microSv/h),MP-7(microSv/h),Wind Direction,Wind Velocity(m/s),Rain
2018/01/17,00:00,0.341,0.207,0.343,0.322,0.306,0.171,0.102,-,-,No
2018/01/17,00:10,0.342,0.206,0.343,0.322,0.306,0.171,0.102,-,-,No
2018/01/17,00:20,0.340,0.207,0.343,0.323,0.306,0.171,0.102,-,-,No
2018/01/17,00:30,0.341,0.207,0.343,0.323,0.305,0.172,0.102,-,-,No
2018/01/17,00:40,0.341,0.206,0.343,0.323,0.306,0.171,0.102,-,-,No
2018/01/17,00:50,0.340,0.207,0.344,0.325,0.307,0.171,0.102,-,-,No
2018/01/17,01:00,0.341,0.207,0.342,0.324,0.306,0.171,0.102,-,-,No
2018/01/17,01:10,0.342,0.208,0.344,0.323,0.305,0.171,0.103,-,-,No
2018/01/17,01:20,0.341,0.206,0.343,0.324,0.305,0.172,0.103,-,-,No
2018/01/17,01:30,0.342,0.207,0.343,0.324,0.305,0.171,0.102,-,-,No
2018/01/17,01:40,0.341,0.208,0.343,0.323,0.305,0.171,0.103,-,-,No
2018/01/17,01:50,0.342,0.206,0.344,0.324,0.305,0.171,0.102,-,-,No
2018/01/17,02:00,0.341,0.207,0.342,0.323,0.305,0.171,0.103,-,-,No
2018/01/17,02:10,0.341,0.208,0.342,0.324,0.304,0.172,0.103,-,-,No
2018/01/17,02:20,0.341,0.206,0.342,0.323,0.307,0.172,0.103,-,-,No
2018/01/17,02:30,0.340,0.206,0.344,0.324,0.305,0.171,0.102,-,-,No
2018/01/17,02:40,0.342,0.208,0.342,0.325,0.304,0.171,0.103,-,-,No
2018/01/17,02:50,0.341,0.207,0.344,0.322,0.306,0.171,0.102,-,-,No
2018/01/17,03:00,0.340,0.205,0.342,0.324,0.305,0.171,0.102,-,-,No
2018/01/17,03:10,0.340,0.207,0.344,0.325,0.305,0.172,0.102,-,-,No
2018/01/17,03:20,0.342,0.207,0.345,0.323,0.306,0.171,0.103,-,-,No
2018/01/17,03:30,0.339,0.207,0.343,0.323,0.305,0.171,0.102,-,-,No
2018/01/17,03:40,0.342,0.208,0.343,0.325,0.304,0.171,0.102,-,-,No
2018/01/17,03:50,0.341,0.208,0.343,0.323,0.307,0.172,0.103,-,-,No
2018/01/17,04:00,0.342,0.207,0.343,0.323,0.305,0.170,0.103,-,-,No
2018/01/17,04:10,0.340,0.207,0.342,0.324,0.306,0.171,0.102,-,-,No
2018/01/17,04:20,0.340,0.208,0.344,0.323,0.306,0.172,0.101,-,-,No
2018/01/17,04:30,0.342,0.207,0.343,0.324,0.305,0.171,0.103,-,-,No
2018/01/17,04:40,0.340,0.207,0.343,0.324,0.306,0.171,0.102,-,-,No
2018/01/17,04:50,0.340,0.208,0.345,0.325,0.307,0.171,0.102,-,-,No
2018/01/17,05:00,0.342,0.207,0.344,0.324,0.306,0.171,0.102,-,-,No
2018/01/17,05:10,0.341,0.208,0.342,0.324,0.306,0.172,0.103,-,-,No
2018/01/17,05:20,0.342,0.207,0.345,0.325,0.306,0.172,0.103,-,-,No
2018/01/17,05:30,0.342,0.208,0.343,0.323,0.305,0.172,0.102,-,-,No
2018/01/17,05:40,0.341,0.207,0.343,0.325,0.306,0.172,0.102,-,-,No
2018/01/17,05:50,0.341,0.208,0.344,0.325,0.307,0.171,0.103,-,-,No
2018/01/17,06:00,0.341,0.209,0.345,0.323,0.304,0.171,0.102,-,-,No
2018/01/17,06:10,0.341,0.207,0.343,0.323,0.307,0.172,0.103,-,-,No
2018/01/17,06:20,0.341,0.206,0.343,0.326,0.306,0.172,0.103,-,-,No
2018/01/17,06:30,0.342,0.207,0.345,0.324,0.306,0.171,0.102,-,-,No
2018/01/17,06:40,0.341,0.207,0.344,0.324,0.306,0.171,0.103,-,-,No
2018/01/17,06:50,0.341,0.207,0.343,0.326,0.306,0.173,0.103,-,-,No
2018/01/17,07:00,0.341,0.208,0.345,0.323,0.306,0.172,0.103,-,-,No
2018/01/17,07:10,0.342,0.208,0.343,0.322,0.307,0.172,0.103,-,-,No
2018/01/17,07:20,0.342,0.207,0.344,0.324,0.305,0.172,0.103,-,-,No
2018/01/17,07:30,0.341,0.208,0.343,0.325,0.307,0.172,0.102,-,-,No
2018/01/17,07:40,0.342,0.208,0.343,0.323,0.306,0.172,0.101,-,-,No
2018/01/17,07:50,0.341,0.207,0.344,0.323,0.305,0.171,0.102,-,-,No
2018/01/17,08:00,0.343,0.207,0.343,0.324,0.306,0.171,0.102,-,-,No
2018/01/17,08:10,0.343,0.208,0.344,0.324,0.307,0.171,0.102,-,-,No
2018/01/17,08:20,0.340,0.208,0.344,0.323,0.304,0.172,0.102,-,-,No
2018/01/17,08:30,0.341,0.206,0.343,0.324,0.306,0.171,0.102,-,-,No
2018/01/17,08:40,0.341,0.208,0.344,0.324,0.305,0.170,0.102,-,-,No
2018/01/17,08:50,0.341,0.207,0.343,0.323,0.305,0.171,0.102,-,-,No
2018/01/17,09:00,0.339,0.208,0.344,0.325,0.307,0.172,0.103,-,-,No
2018/01/17,09:10,0.342,0.208,0.346,0.323,0.305,0.171,0.102,-,-,No
2018/01/17,09:20,0.340,0.207,0.343,0.323,0.305,0.172,0.102,-,-,No
2018/01/17,09:30,0.340,0.207,0.344,0.324,0.306,0.172,0.102,-,-,No
2018/01/17,09:40,0.341,0.208,0.345,0.323,0.306,0.172,0.102,-,-,No
2018/01/17,09:50,0.341,0.208,0.343,0.324,0.307,0.171,0.103,-,-,Yes
2018/01/17,10:00,0.341,0.207,0.344,0.323,0.306,0.172,0.102,-,-,Yes
2018/01/17,10:10,0.342,0.208,0.345,0.323,0.308,0.173,0.102,-,-,Yes
2018/01/17,10:20,0.342,0.209,0.343,0.323,0.309,0.173,0.103,-,-,Yes
2018/01/17,10:30,0.343,0.208,0.346,0.327,0.307,0.173,0.104,-,-,Yes
2018/01/17,10:40,0.345,0.210,0.346,0.325,0.307,0.173,0.104,-,-,Yes
2018/01/17,10:50,0.343,0.209,0.345,0.326,0.309,0.174,0.104,-,-,Yes
2018/01/17,11:00,0.342,0.209,0.345,0.326,0.308,0.173,0.105,-,-,Yes
2018/01/17,11:10,0.343,0.209,0.345,0.325,0.309,0.172,0.105,-,-,Yes
2018/01/17,11:20,0.343,0.209,0.346,0.325,0.307,0.173,0.105,-,-,Yes
2018/01/17,11:30,0.344,0.209,0.345,0.326,0.307,0.173,0.104,-,-,Yes
2018/01/17,11:40,0.345,0.209,0.346,0.324,0.310,0.173,0.104,-,-,Yes
2018/01/17,11:50,0.344,0.209,0.345,0.326,0.308,0.173,0.104,-,-,Yes
2018/01/17,12:00,0.343,0.210,0.345,0.324,0.308,0.174,0.105,-,-,Yes
2018/01/17,12:10,0.345,0.210,0.345,0.324,0.309,0.174,0.105,-,-,Yes
2018/01/17,12:20,0.343,0.210,0.344,0.325,0.308,0.175,0.104,-,-,Yes
2018/01/17,12:30,0.343,0.210,0.345,0.325,0.308,0.174,0.104,-,-,Yes
2018/01/17,12:40,0.344,0.210,0.346,0.324,0.308,0.174,0.105,-,-,Yes
2018/01/17,12:50,0.343,0.210,0.345,0.325,0.308,0.174,0.105,-,-,Yes
2018/01/17,13:00,0.342,0.209,0.345,0.325,0.307,0.175,0.105,-,-,Yes
2018/01/17,13:10,0.343,0.210,0.347,0.324,0.308,0.173,0.105,-,-,Yes
2018/01/17,13:20,0.343,0.210,0.345,0.326,0.307,0.173,0.105,-,-,Yes
2018/01/17,13:30,0.344,0.210,0.344,0.325,0.306,0.175,0.105,-,-,Yes
2018/01/17,13:40,0.343,0.209,0.345,0.327,0.309,0.175,0.106,-,-,Yes
2018/01/17,13:50,0.344,0.211,0.345,0.325,0.308,0.175,0.106,-,-,Yes
2018/01/17,14:00,0.342,0.211,0.344,0.323,0.307,0.176,0.105,-,-,Yes
2018/01/17,14:10,0.343,0.210,0.345,0.326,0.309,0.176,0.106,-,-,Yes
2018/01/17,14:20,0.345,0.213,0.347,0.327,0.308,0.177,0.108,north-northeast,5.9,Yes
2018/01/17,14:30,0.345,0.212,0.345,0.327,0.310,0.178,0.108,north,5.3,Yes
2018/01/17,14:40,0.344,0.213,0.345,0.327,0.310,0.178,0.109,north,5.7,Yes
2018/01/17,14:50,0.346,0.214,0.347,0.327,0.308,0.179,0.109,north,5.7,Yes
2018/01/17,15:00,0.345,0.215,0.347,0.326,0.309,0.179,0.109,north,6.1,Yes
2018/01/17,15:10,0.345,0.214,0.346,0.326,0.310,0.179,0.111,north,7.4,Yes
2018/01/17,15:20,0.347,0.215,0.344,0.326,0.310,0.181,0.114,north,7.3,Yes
2018/01/17,15:30,0.348,0.217,0.345,0.326,0.311,0.181,0.114,north,6.0,Yes
2018/01/17,15:40,0.348,0.218,0.345,0.326,0.312,0.182,0.114,north,7.3,Yes
2018/01/17,15:50,0.349,0.217,0.345,0.326,0.312,0.183,0.115,north,5.9,Yes
2018/01/17,16:00,0.349,0.217,0.344,0.327,0.313,0.183,0.114,north,5.8,Yes
2018/01/17,16:10,0.348,0.218,0.344,0.326,0.313,0.184,0.116,north-northeast,6.0,Yes
2018/01/17,16:20,0.347,0.216,0.342,0.326,0.313,0.184,0.115,north,6.9,Yes
2018/01/17,16:30,0.344,0.217,0.343,0.325,0.312,0.182,0.114,north,6.1,Yes
2018/01/17,16:40,0.346,0.216,0.343,0.322,0.311,0.182,0.113,north-northwest,6.0,Yes
2018/01/17,16:50,0.344,0.215,0.342,0.324,0.312,0.180,0.113,north-northwest,6.4,Yes
2018/01/17,17:00,0.343,0.213,0.341,0.322,0.310,0.179,0.112,north-northwest,6.2,Yes
2018/01/17,17:10,0.339,0.213,0.338,0.322,0.310,0.177,0.111,north-northwest,6.7,Yes
2018/01/17,17:20,0.343,0.212,0.337,0.321,0.310,0.177,0.110,north,7.0,Yes
2018/01/17,17:30,0.339,0.210,0.338,0.319,0.308,0.176,0.109,-,CALM,Yes
2018/01/17,17:40,0.338,0.209,0.337,0.318,0.307,0.175,0.109,-,CALM,Yes
2018/01/17,17:50,0.338,0.209,0.335,0.317,0.306,0.173,0.108,-,CALM,Yes
2018/01/17,18:00,0.336,0.208,0.335,0.314,0.306,0.173,0.108,-,CALM,Yes
2018/01/17,18:10,0.337,0.208,0.334,0.315,0.303,0.172,0.108,-,CALM,Yes
2018/01/17,18:20,0.335,0.208,0.332,0.314,0.305,0.173,0.107,-,CALM,Yes
2018/01/17,18:30,0.336,0.208,0.332,0.315,0.306,0.172,0.107,-,CALM,Yes
2018/01/17,18:40,0.337,0.209,0.332,0.316,0.305,0.174,0.109,-,CALM,Yes
2018/01/17,18:50,0.336,0.209,0.334,0.313,0.306,0.176,0.111,-,CALM,Yes
2018/01/17,19:00,0.337,0.211,0.335,0.315,0.308,0.177,0.112,-,CALM,Yes
2018/01/17,19:10,0.340,0.212,0.333,0.316,0.308,0.176,0.111,-,CALM,Yes
2018/01/17,19:20,0.338,0.211,0.335,0.316,0.308,0.176,0.111,-,CALM,Yes
2018/01/17,19:30,0.336,0.211,0.335,0.317,0.309,0.175,0.111,-,CALM,Yes
2018/01/17,19:40,0.336,0.209,0.336,0.315,0.308,0.175,0.110,-,CALM,Yes
2018/01/17,19:50,0.337,0.210,0.335,0.315,0.307,0.175,0.110,-,CALM,Yes
2018/01/17,20:00,0.337,0.211,0.334,0.316,0.309,0.175,0.111,-,CALM,Yes
2018/01/17,20:10,0.337,0.211,0.335,0.314,0.308,0.174,0.111,-,CALM,Yes
2018/01/17,20:20,0.337,0.210,0.332,0.315,0.309,0.175,0.111,-,CALM,Yes
2018/01/17,20:30,0.337,0.210,0.333,0.315,0.308,0.173,0.110,-,CALM,Yes
2018/01/17,20:40,0.336,0.210,0.333,0.315,0.308,0.173,0.109,-,CALM,Yes
2018/01/17,20:50,0.336,0.211,0.333,0.315,0.307,0.172,0.110,-,CALM,Yes
2018/01/17,21:00,0.336,0.209,0.332,0.313,0.307,0.173,0.108,-,CALM,Yes
2018/01/17,21:10,0.335,0.210,0.332,0.315,0.307,0.172,0.108,-,CALM,Yes
2018/01/17,21:20,0.337,0.210,0.333,0.315,0.307,0.172,0.109,-,CALM,Yes
2018/01/17,21:30,0.336,0.210,0.333,0.315,0.309,0.173,0.109,-,CALM,Yes
2018/01/17,21:40,0.336,0.210,0.332,0.315,0.306,0.172,0.109,-,CALM,Yes
2018/01/17,21:50,0.335,0.211,0.333,0.316,0.308,0.172,0.110,-,CALM,Yes
2018/01/17,22:00,0.337,0.212,0.332,0.316,0.307,0.173,0.109,-,CALM,Yes
2018/01/17,22:10,0.333,0.211,0.333,0.314,0.308,0.172,0.109,-,CALM,Yes
2018/01/17,22:20,0.334,0.210,0.332,0.314,0.309,0.172,0.108,-,CALM,Yes
2018/01/17,22:30,0.336,0.210,0.331,0.315,0.306,0.171,0.108,-,CALM,Yes
2018/01/17,22:40,0.334,0.210,0.332,0.313,0.306,0.172,0.108,-,CALM,Yes
2018/01/17,22:50,0.334,0.210,0.334,0.313,0.307,0.171,0.108,-,CALM,Yes
2018/01/17,23:00,0.333,0.210,0.332,0.314,0.307,0.171,0.107,-,CALM,Yes
2018/01/17,23:10,0.336,0.208,0.332,0.314,0.307,0.170,0.107,-,CALM,Yes
2018/01/17,23:20,0.333,0.209,0.331,0.313,0.306,0.170,0.106,-,CALM,Yes
2018/01/17,23:30,0.334,0.208,0.332,0.312,0.307,0.169,0.106,-,CALM,Yes
2018/01/17,23:40,0.333,0.209,0.332,0.312,0.308,0.170,0.106,-,CALM,Yes
2018/01/17,23:50,0.335,0.209,0.333,0.314,0.308,0.172,0.107,-,CALM,Yes
